Pine River, MN

5:22 AM CST on February 24, 2017 (GMT -0600)
Pine River Regional

Weather History for KPWC - October, 2013

Change the Weather History Date:

Saturday, October 5, 2013

  Actual Average Record
Temperature  
Mean Temperature 48 °F -  
Max Temperature 51 °F 58 °F 82 °F (2011)
Min Temperature 46 °F 36 °F 26 °F (2004)
Degree Days  
Heating Degree Days 16    
Moisture  
Dew Point 47 °F    
Average Humidity 95    
Maximum Humidity 100    
Minimum Humidity 71    
Precipitation  
Precipitation 0.94 in - - ()
Sea Level Pressure  
Sea Level Pressure 29.89 in    
Wind  
Wind Speed 11 mph (ENE)    
Max Wind Speed 18 mph    
Max Gust Speed 24 mph    
Visibility 6 miles    
Events Rain    
Averages and records for this station are not official NWS values.
T = Trace of Precipitation, MM = Missing Value Source: NWS Daily Summary

Daily Weather History Graph

Daily Weather History Graph

Search for Another Location

Airport or City:

Trip Planner

Search our weather history database for the weather conditions in past years. The results will help you decide how hot, cold, wet, or windy it might be!

Date:

Astronomy

Oct. 05, 2013 Rise Set
Actual Time 7:21 AM CDT 6:48 PM CDT
Civil Twilight 6:51 AM CDT 7:19 PM CDT
Nautical Twilight 6:16 AM CDT 7:54 PM CDT
Astronomical Twilight 5:41 AM CDT 8:29 PM CDT
Moon 8:06 AM CDT (10/5) 7:02 PM CDT (10/5)
Length of Visible Light 12h 27m
Length of Day
11h 26m
New Moon, 1% of the Moon is Illuminated
Oct 5
New Moon
Oct 11
First Quarter
Oct 18
Full
Oct 26
Last Quarter
Nov 3
New

Hourly Weather History & Observations

Time (CDT) Temp. Windchill Dew Point Humidity Pressure Visibility Wind Dir Wind Speed Gust Speed Precip Events Conditions
12:13 AM 51.8 °F - 42.8 °F 71% 29.99 in 10.0 mi East 12.7 mph 24.2 mph N/A   Overcast
12:33 AM 51.8 °F - 42.8 °F 71% 29.97 in 10.0 mi ENE 17.3 mph 23.0 mph N/A   Overcast
12:52 AM 48.2 °F - 42.8 °F 82% 29.98 in 10.0 mi ENE 13.8 mph 23.0 mph 0.01 in Rain Rain
1:13 AM 48.2 °F - 44.6 °F 87% 29.98 in 10.0 mi East 11.5 mph 20.7 mph 0.03 in Rain Light Rain
1:33 AM 48.2 °F - 44.6 °F 87% 29.98 in 10.0 mi ENE 10.4 mph - 0.04 in Rain Light Rain
1:52 AM 48.2 °F - 44.6 °F 87% 29.99 in 7.0 mi ENE 6.9 mph - 0.01 in Rain Rain
2:13 AM 48.2 °F - 44.6 °F 87% 29.98 in 10.0 mi ENE 8.1 mph - 0.05 in Rain Light Rain
2:32 AM 46.4 °F 41.9 °F 44.6 °F 93% 29.97 in 7.0 mi ENE 9.2 mph - 0.11 in Rain Heavy Rain
2:53 AM 46.4 °F 41.5 °F 44.6 °F 93% 29.97 in 7.0 mi NE 10.4 mph 16.1 mph 0.01 in Rain Heavy Rain
3:12 AM 46.4 °F 41.9 °F 46.4 °F 100% 29.96 in 10.0 mi ENE 9.2 mph - 0.01 in   Overcast
3:32 AM 48.2 °F - 46.4 °F 93% 29.95 in 10.0 mi ENE 11.5 mph 16.1 mph 0.01 in   Overcast
3:53 AM 48.2 °F - 46.4 °F 93% 29.94 in 10.0 mi ENE 15.0 mph 23.0 mph N/A   Overcast
4:12 AM 48.2 °F - 46.4 °F 93% 29.94 in 7.0 mi ENE 10.4 mph 21.9 mph N/A   Overcast
4:32 AM 48.2 °F - 46.4 °F 93% 29.93 in 4.0 mi ENE 11.5 mph 23.0 mph N/A   Light Drizzle
4:53 AM 48.2 °F - 46.4 °F 93% 29.93 in 4.0 mi ENE 18.4 mph 23.0 mph N/A   Light Drizzle
5:12 AM 48.2 °F - 46.4 °F 93% 29.92 in 2.5 mi ENE 12.7 mph 21.9 mph N/A   Light Drizzle
5:32 AM 48.2 °F - 46.4 °F 93% 29.91 in 3.0 mi ENE 13.8 mph 21.9 mph N/A   Light Drizzle
5:53 AM 48.2 °F - 46.4 °F 93% 29.92 in 4.0 mi ENE 10.4 mph 19.6 mph N/A   Overcast
6:13 AM 48.2 °F - 46.4 °F 93% 29.92 in 10.0 mi ENE 13.8 mph 20.7 mph N/A   Overcast
6:33 AM 48.2 °F - 46.4 °F 93% 29.92 in 5.0 mi ENE 10.4 mph - N/A   Overcast
6:52 AM 48.2 °F - 46.4 °F 93% 29.91 in 5.0 mi East 11.5 mph 20.7 mph N/A   Overcast
7:13 AM 48.2 °F - 46.4 °F 93% 29.90 in 4.0 mi ENE 11.5 mph 19.6 mph N/A   Overcast
7:33 AM 48.2 °F - 46.4 °F 93% 29.89 in 4.0 mi ENE 11.5 mph 18.4 mph N/A   Overcast
7:52 AM 48.2 °F - 46.4 °F 93% 29.89 in 3.0 mi East 12.7 mph 23.0 mph N/A   Overcast
8:13 AM 48.2 °F - 48.2 °F 100% 29.89 in 4.0 mi ENE 15.0 mph 21.9 mph N/A   Overcast
8:33 AM 48.2 °F - 48.2 °F 100% 29.89 in 1.8 mi East 16.1 mph 19.6 mph N/A   Overcast
8:53 AM 48.2 °F - 48.2 °F 100% 29.89 in 1.2 mi ENE 11.5 mph 24.2 mph N/A   Overcast
9:13 AM 48.2 °F - 48.2 °F 100% 29.90 in 1.8 mi ENE 12.7 mph - N/A   Drizzle
9:31 AM 48.2 °F - 48.2 °F 100% 29.90 in 2.5 mi ENE 12.7 mph 19.6 mph 0.01 in   Light Drizzle
9:53 AM 48.2 °F - 48.2 °F 100% 29.90 in 2.5 mi ENE 13.8 mph 19.6 mph N/A   Light Drizzle
10:13 AM 48.2 °F - 48.2 °F 100% 29.91 in 2.0 mi East 10.4 mph 19.6 mph N/A   Light Drizzle
10:32 AM 48.2 °F - 48.2 °F 100% 29.91 in 1.5 mi East 8.1 mph 11.5 mph N/A   Drizzle
10:53 AM 48.2 °F - 48.2 °F 100% 29.91 in 1.5 mi East 8.1 mph - N/A   Light Drizzle
11:12 AM 48.2 °F - 48.2 °F 100% 29.90 in 1.8 mi East 11.5 mph 19.6 mph N/A   Light Drizzle
11:33 AM 48.2 °F - 48.2 °F 100% 29.90 in 2.0 mi East 11.5 mph - N/A   Light Drizzle
11:53 AM 50.0 °F - 48.2 °F 94% 29.90 in 4.0 mi East 11.5 mph - N/A   Overcast
12:12 PM 50.0 °F - 48.2 °F 94% 29.90 in 4.0 mi East 15.0 mph 20.7 mph N/A   Overcast
12:32 PM 50.0 °F - 48.2 °F 94% 29.89 in 2.5 mi East 10.4 mph - N/A   Overcast
12:53 PM 50.0 °F - 50.0 °F 100% 29.89 in 2.0 mi East 15.0 mph 21.9 mph N/A   Overcast
1:12 PM 51.8 °F - 50.0 °F 94% 29.88 in 3.0 mi East 11.5 mph 18.4 mph N/A   Overcast
1:32 PM 51.8 °F - 50.0 °F 94% 29.87 in 4.0 mi East 12.7 mph 18.4 mph N/A   Overcast
1:53 PM 51.8 °F - 50.0 °F 94% 29.86 in 4.0 mi ENE 13.8 mph 18.4 mph N/A   Overcast
2:13 PM 51.8 °F - 50.0 °F 94% 29.85 in 4.0 mi East 12.7 mph 18.4 mph N/A   Overcast
2:33 PM 51.8 °F - 50.0 °F 94% 29.86 in 5.0 mi East 10.4 mph - N/A   Overcast
2:53 PM 50.0 °F - 50.0 °F 100% 29.85 in 5.0 mi East 13.8 mph - N/A   Overcast
3:12 PM 50.0 °F - 50.0 °F 100% 29.85 in 3.0 mi East 12.7 mph 18.4 mph N/A   Overcast
3:33 PM 50.0 °F - 50.0 °F 100% 29.86 in 4.0 mi East 12.7 mph - N/A Rain Light Rain
3:53 PM 50.0 °F - 48.2 °F 94% 29.85 in 2.5 mi East 9.2 mph - N/A Rain Light Rain
4:12 PM 50.0 °F - 48.2 °F 94% 29.85 in 1.8 mi East 13.8 mph 19.6 mph N/A Rain Light Rain
4:33 PM 50.0 °F - 48.2 °F 94% 29.85 in 3.0 mi East 8.1 mph - 0.01 in Rain Light Rain
4:53 PM 50.0 °F - 48.2 °F 94% 29.84 in 4.0 mi ENE 5.8 mph - N/A Rain Light Rain
5:12 PM 50.0 °F - 48.2 °F 94% 29.84 in 10.0 mi ENE 6.9 mph - 0.01 in   Light Drizzle
5:32 PM 50.0 °F - 48.2 °F 94% 29.84 in 10.0 mi NE 4.6 mph - 0.01 in Rain Light Rain
5:53 PM 50.0 °F - 48.2 °F 94% 29.85 in 7.0 mi NE 4.6 mph - 0.03 in Rain Rain
6:13 PM 48.2 °F - 48.2 °F 100% 29.85 in 10.0 mi ENE 5.8 mph - 0.08 in Rain Rain
6:32 PM 48.2 °F - 48.2 °F 100% 29.84 in 10.0 mi NE 5.8 mph - 0.13 in Rain Rain
6:52 PM 48.2 °F - 48.2 °F 100% 29.84 in 10.0 mi NE 3.5 mph - 0.03 in Rain Rain
7:13 PM 48.2 °F - 48.2 °F 100% 29.84 in 7.0 mi NNE 4.6 mph - 0.12 in Rain Heavy Rain
7:32 PM 48.2 °F - 48.2 °F 100% 29.86 in 7.0 mi Calm Calm - 0.14 in Rain Rain
7:51 PM 48.2 °F - 48.2 °F 100% 29.85 in 10.0 mi NE 5.8 mph - 0.01 in Rain Rain
8:13 PM 48.2 °F - 48.2 °F 100% 29.86 in 10.0 mi North 3.5 mph - 0.08 in Rain Rain
8:32 PM 48.2 °F - 48.2 °F 100% 29.87 in 7.0 mi North 3.5 mph - 0.16 in Rain Rain
8:53 PM 48.2 °F - 48.2 °F 100% 29.86 in 10.0 mi North 4.6 mph - 0.02 in Rain Rain
9:13 PM 48.2 °F - 48.2 °F 100% 29.87 in 10.0 mi NNE 4.6 mph - 0.10 in Rain Rain
9:32 PM 46.4 °F 45.2 °F 46.4 °F 100% 29.86 in 7.0 mi NNE 3.5 mph - 0.19 in Rain Rain
9:53 PM 46.4 °F 42.9 °F 46.4 °F 100% 29.84 in 10.0 mi North 6.9 mph - 0.03 in Rain Rain
10:12 PM 46.4 °F 42.4 °F 46.4 °F 100% 29.83 in 10.0 mi North 8.1 mph - 0.08 in Rain Rain
10:32 PM 46.4 °F 41.5 °F 46.4 °F 100% 29.82 in 10.0 mi North 10.4 mph - 0.10 in Rain Light Rain
10:53 PM 46.4 °F 42.9 °F 46.4 °F 100% 29.82 in 10.0 mi NE 6.9 mph 16.1 mph N/A Rain Rain
11:13 PM 46.4 °F 42.4 °F 46.4 °F 100% 29.82 in 10.0 mi NE 8.1 mph 17.3 mph N/A   Drizzle
11:33 PM 46.4 °F 43.5 °F 46.4 °F 100% 29.81 in 10.0 mi NNE 5.8 mph - N/A Rain Light Rain
11:53 PM 46.4 °F 43.5 °F 46.4 °F 100% 29.81 in 10.0 mi NNE 5.8 mph - N/A   Light Drizzle